Time,TemperatureF,DewpointF,PressureIn,WindDirection,WindDirectionDegrees,WindSpeedMPH,WindSpeedGustMPH,Humidity,HourlyPrecipIn,Conditions,Clouds,dailyrainin,SoftwareType,DateUTC
2013-01-03 00:01:00,46.3,34.8,30.23,North,0,0.0,0.0,64,0.00,,,0.00,WUHU216HW,2013-01-03 08:01:00,
2013-01-03 00:06:00,46.1,34.6,30.23,North,0,0.0,0.0,64,0.00,,,0.00,WUHU216HW,2013-01-03 08:06:00,
2013-01-03 00:11:00,45.9,34.4,30.24,North,0,0.0,0.0,64,0.00,,,0.00,WUHU216HW,2013-01-03 08:11:00,
2013-01-03 00:16:00,45.7,35.0,30.23,North,0,0.0,0.0,66,0.00,,,0.00,WUHU216HW,2013-01-03 08:16:00,
2013-01-03 00:21:00,45.5,34.8,30.23,North,0,0.0,0.0,66,0.00,,,0.00,WUHU216HW,2013-01-03 08:21:00,
2013-01-03 00:26:00,45.4,34.7,30.23,North,0,0.0,0.0,66,0.00,,,0.00,WUHU216HW,2013-01-03 08:26:00,
2013-01-03 00:31:00,45.2,34.1,30.23,North,0,0.0,0.0,65,0.00,,,0.00,WUHU216HW,2013-01-03 08:31:00,
2013-01-03 00:36:00,44.8,34.1,30.24,North,0,0.0,0.0,66,0.00,,,0.00,WUHU216HW,2013-01-03 08:36:00,
2013-01-03 00:41:00,44.5,33.8,30.24,North,0,0.0,0.0,66,0.00,,,0.00,WUHU216HW,2013-01-03 08:41:00,
2013-01-03 00:47:00,44.3,34.0,30.23,North,0,0.0,0.0,67,0.00,,,0.00,WUHU216HW,2013-01-03 08:47:00,
2013-01-03 00:52:00,44.1,33.9,30.23,North,0,0.0,0.0,67,0.00,,,0.00,WUHU216HW,2013-01-03 08:52:00,
2013-01-03 00:57:00,44.3,33.6,30.23,North,0,0.0,0.0,66,0.00,,,0.00,WUHU216HW,2013-01-03 08:57:00,
2013-01-03 01:02:00,44.5,34.2,30.23,North,0,0.0,0.0,67,0.00,,,0.00,WUHU216HW,2013-01-03 09:02:00,
2013-01-03 01:07:00,44.6,34.3,30.23,North,0,0.0,0.0,67,0.00,,,0.00,WUHU216HW,2013-01-03 09:07:00,
2013-01-03 01:12:00,44.6,34.3,30.23,North,0,0.0,0.0,67,0.00,,,0.00,WUHU216HW,2013-01-03 09:12:00,
2013-01-03 01:17:00,44.8,34.5,30.23,North,0,0.0,0.0,67,0.00,,,0.00,WUHU216HW,2013-01-03 09:17:00,
2013-01-03 01:22:00,45.0,35.1,30.23,North,0,0.0,0.0,68,0.00,,,0.00,WUHU216HW,2013-01-03 09:22:00,
2013-01-03 01:27:00,45.0,35.1,30.23,North,0,0.0,0.0,68,0.00,,,0.00,WUHU216HW,2013-01-03 09:27:00,
2013-01-03 01:32:00,45.0,35.1,30.23,North,0,0.0,0.0,68,0.00,,,0.00,WUHU216HW,2013-01-03 09:32:00,
2013-01-03 01:37:00,45.0,35.1,30.23,North,0,0.0,0.0,68,0.00,,,0.00,WUHU216HW,2013-01-03 09:37:00,
2013-01-03 01:42:00,44.8,34.9,30.24,North,0,0.0,0.0,68,0.00,,,0.00,WUHU216HW,2013-01-03 09:42:00,
2013-01-03 01:47:00,44.6,34.8,30.24,North,0,0.0,0.0,68,0.00,,,0.00,WUHU216HW,2013-01-03 09:47:00,
2013-01-03 01:52:00,44.6,35.1,30.24,North,0,0.0,0.0,69,0.00,,,0.00,WUHU216HW,2013-01-03 09:52:00,
2013-01-03 01:57:00,44.6,35.1,30.24,North,0,0.0,0.0,69,0.00,,,0.00,WUHU216HW,2013-01-03 09:57:00,
2013-01-03 02:02:00,44.6,35.1,30.25,North,0,0.0,0.0,69,0.00,,,0.00,WUHU216HW,2013-01-03 10:02:00,
2013-01-03 02:07:00,44.3,34.7,30.25,North,0,0.0,0.0,69,0.00,,,0.00,WUHU216HW,2013-01-03 10:07:00,
2013-01-03 02:12:00,44.3,35.1,30.25,North,0,0.0,0.0,70,0.00,,,0.00,WUHU216HW,2013-01-03 10:12:00,
2013-01-03 02:17:00,44.1,34.6,30.26,North,0,0.0,0.0,69,0.00,,,0.00,WUHU216HW,2013-01-03 10:17:00,
2013-01-03 02:22:00,43.9,34.5,30.26,North,0,0.0,0.0,69,0.00,,,0.00,WUHU216HW,2013-01-03 10:22:00,
2013-01-03 02:27:00,43.6,34.5,30.25,North,0,0.0,0.0,70,0.00,,,0.00,WUHU216HW,2013-01-03 10:27:00,
2013-01-03 02:32:00,43.6,34.5,30.26,North,0,0.0,0.0,70,0.00,,,0.00,WUHU216HW,2013-01-03 10:32:00,
2013-01-03 02:37:00,43.6,34.5,30.25,North,0,0.0,0.0,70,0.00,,,0.00,WUHU216HW,2013-01-03 10:37:00,
2013-01-03 02:42:00,43.4,34.3,30.25,North,0,0.0,0.0,70,0.00,,,0.00,WUHU216HW,2013-01-03 10:42:00,
2013-01-03 02:47:00,43.4,34.3,30.25,North,0,0.0,0.0,70,0.00,,,0.00,WUHU216HW,2013-01-03 10:47:00,
2013-01-03 02:52:00,43.2,33.8,30.24,North,0,0.0,0.0,69,0.00,,,0.00,WUHU216HW,2013-01-03 10:52:00,
2013-01-03 02:57:00,43.0,33.6,30.24,North,0,0.0,0.0,69,0.00,,,0.00,WUHU216HW,2013-01-03 10:57:00,
2013-01-03 03:02:00,43.0,33.2,30.24,North,0,0.0,0.0,68,0.00,,,0.00,WUHU216HW,2013-01-03 11:02:00,
2013-01-03 03:07:00,42.8,33.0,30.24,North,0,0.0,0.0,68,0.00,,,0.00,WUHU216HW,2013-01-03 11:07:00,
2013-01-03 03:12:00,43.0,33.2,30.24,North,0,0.0,0.0,68,0.00,,,0.00,WUHU216HW,2013-01-03 11:12:00,
2013-01-03 03:17:00,43.2,33.4,30.23,North,0,0.0,0.0,68,0.00,,,0.00,WUHU216HW,2013-01-03 11:17:00,
2013-01-03 03:22:00,43.4,33.6,30.23,North,0,0.0,0.0,68,0.00,,,0.00,WUHU216HW,2013-01-03 11:22:00,
2013-01-03 03:27:00,43.6,33.8,30.23,North,0,0.0,0.0,68,0.00,,,0.00,WUHU216HW,2013-01-03 11:27:00,
2013-01-03 03:32:00,43.7,33.5,30.23,North,0,0.0,0.0,67,0.00,,,0.00,WUHU216HW,2013-01-03 11:32:00,
2013-01-03 03:37:00,43.7,33.5,30.23,North,0,0.0,0.0,67,0.00,,,0.00,WUHU216HW,2013-01-03 11:37:00,
2013-01-03 03:42:00,43.9,33.7,30.23,North,0,0.0,0.0,67,0.00,,,0.00,WUHU216HW,2013-01-03 11:42:00,
2013-01-03 03:47:00,43.9,33.7,30.23,North,0,0.0,0.0,67,0.00,,,0.00,WUHU216HW,2013-01-03 11:47:00,
2013-01-03 03:52:00,43.7,33.5,30.23,North,0,0.0,0.0,67,0.00,,,0.00,WUHU216HW,2013-01-03 11:52:00,
2013-01-03 03:57:00,43.7,33.5,30.23,North,0,0.0,0.0,67,0.00,,,0.00,WUHU216HW,2013-01-03 11:57:00,
2013-01-03 04:02:00,43.6,33.3,30.23,North,0,0.0,0.0,67,0.00,,,0.00,WUHU216HW,2013-01-03 12:02:00,
2013-01-03 04:07:00,43.6,33.3,30.23,North,0,0.0,0.0,67,0.00,,,0.00,WUHU216HW,2013-01-03 12:07:00,
2013-01-03 04:12:00,43.6,33.3,30.23,North,0,0.0,0.0,67,0.00,,,0.00,WUHU216HW,2013-01-03 12:12:00,
2013-01-03 04:17:00,43.6,33.3,30.23,North,0,0.0,0.0,67,0.00,,,0.00,WUHU216HW,2013-01-03 12:17:00,
2013-01-03 04:22:00,43.4,33.1,30.23,North,0,0.0,0.0,67,0.00,,,0.00,WUHU216HW,2013-01-03 12:22:00,
2013-01-03 04:27:00,43.2,33.4,30.23,North,0,0.0,0.0,68,0.00,,,0.00,WUHU216HW,2013-01-03 12:27:00,
2013-01-03 04:32:00,42.8,33.0,30.23,North,0,0.0,0.0,68,0.00,,,0.00,WUHU216HW,2013-01-03 12:32:00,
2013-01-03 04:37:00,42.8,33.5,30.23,North,0,0.0,0.0,69,0.00,,,0.00,WUHU216HW,2013-01-03 12:37:00,
2013-01-03 04:42:00,42.7,33.7,30.23,North,0,0.0,0.0,70,0.00,,,0.00,WUHU216HW,2013-01-03 12:42:00,
2013-01-03 04:47:00,42.7,34.0,30.23,North,0,0.0,0.0,71,0.00,,,0.00,WUHU216HW,2013-01-03 12:47:00,
2013-01-03 04:52:00,42.5,33.5,30.23,North,0,0.0,0.0,70,0.00,,,0.00,WUHU216HW,2013-01-03 12:52:00,
2013-01-03 04:57:00,42.3,33.7,30.23,North,0,0.0,0.0,71,0.00,,,0.00,WUHU216HW,2013-01-03 12:57:00,
2013-01-03 05:02:00,42.1,33.5,30.23,North,0,0.0,0.0,71,0.00,,,0.00,WUHU216HW,2013-01-03 13:02:00,
2013-01-03 05:07:00,41.9,32.9,30.24,North,0,0.0,0.0,70,0.00,,,0.00,WUHU216HW,2013-01-03 13:07:00,
2013-01-03 05:12:00,41.8,32.4,30.24,North,0,0.0,0.0,69,0.00,,,0.00,WUHU216HW,2013-01-03 13:12:00,
2013-01-03 05:17:00,41.6,31.8,30.25,North,0,0.0,0.0,68,0.00,,,0.00,WUHU216HW,2013-01-03 13:17:00,
2013-01-03 05:22:00,41.4,31.7,30.24,North,0,0.0,0.0,68,0.00,,,0.00,WUHU216HW,2013-01-03 13:22:00,
2013-01-03 05:27:00,41.2,31.9,30.24,North,0,0.0,0.0,69,0.00,,,0.00,WUHU216HW,2013-01-03 13:27:00,
2013-01-03 05:32:00,41.2,31.9,30.24,North,0,0.0,0.0,69,0.00,,,0.00,WUHU216HW,2013-01-03 13:32:00,
2013-01-03 05:37:00,41.2,32.2,30.24,North,0,0.0,0.0,70,0.00,,,0.00,WUHU216HW,2013-01-03 13:37:00,
2013-01-03 05:42:00,41.2,31.9,30.24,North,0,0.0,0.0,69,0.00,,,0.00,WUHU216HW,2013-01-03 13:42:00,
2013-01-03 05:47:00,41.4,31.7,30.25,North,0,0.0,0.0,68,0.00,,,0.00,WUHU216HW,2013-01-03 13:47:00,
2013-01-03 05:52:00,41.4,31.2,30.25,North,0,0.0,0.0,67,0.00,,,0.00,WUHU216HW,2013-01-03 13:52:00,
2013-01-03 05:57:00,41.4,31.2,30.25,North,0,0.0,0.0,67,0.00,,,0.00,WUHU216HW,2013-01-03 13:57:00,
2013-01-03 06:02:00,41.2,31.1,30.25,North,0,0.0,0.0,67,0.00,,,0.00,WUHU216HW,2013-01-03 14:02:00,
2013-01-03 06:07:00,41.0,30.9,30.25,North,0,0.0,0.0,67,0.00,,,0.00,WUHU216HW,2013-01-03 14:07:00,
2013-01-03 06:12:00,40.7,30.5,30.25,North,0,0.0,0.0,67,0.00,,,0.00,WUHU216HW,2013-01-03 14:12:00,
2013-01-03 06:17:00,40.7,30.5,30.25,North,0,0.0,0.0,67,0.00,,,0.00,WUHU216HW,2013-01-03 14:17:00,
2013-01-03 06:22:00,40.5,30.8,30.26,North,0,0.0,0.0,68,0.00,,,0.00,WUHU216HW,2013-01-03 14:22:00,
2013-01-03 06:27:00,40.1,30.4,30.26,North,0,0.0,0.0,68,0.00,,,0.00,WUHU216HW,2013-01-03 14:27:00,
2013-01-03 06:32:00,40.0,30.6,30.26,North,0,0.0,0.0,69,0.00,,,0.00,WUHU216HW,2013-01-03 14:32:00,
2013-01-03 06:37:00,39.8,30.4,30.26,North,0,0.0,0.0,69,0.00,,,0.00,WUHU216HW,2013-01-03 14:37:00,
2013-01-03 06:42:00,39.4,30.1,30.26,North,0,0.0,0.0,69,0.00,,,0.00,WUHU216HW,2013-01-03 14:42:00,
2013-01-03 06:47:00,39.2,30.2,30.26,North,0,0.0,0.0,70,0.00,,,0.00,WUHU216HW,2013-01-03 14:47:00,
2013-01-03 06:52:00,39.2,30.6,30.26,North,0,0.0,0.0,71,0.00,,,0.00,WUHU216HW,2013-01-03 14:52:00,
2013-01-03 06:57:00,39.4,30.8,30.26,North,0,0.0,0.0,71,0.00,,,0.00,WUHU216HW,2013-01-03 14:57:00,
2013-01-03 07:02:00,40.0,31.0,30.26,North,0,0.0,0.0,70,0.00,,,0.00,WUHU216HW,2013-01-03 15:02:00,
2013-01-03 07:07:00,40.1,30.8,30.26,North,0,0.0,0.0,69,0.00,,,0.00,WUHU216HW,2013-01-03 15:07:00,
2013-01-03 07:12:00,40.1,30.8,30.26,North,0,0.0,0.0,69,0.00,,,0.00,WUHU216HW,2013-01-03 15:12:00,
2013-01-03 07:17:00,40.1,30.8,30.26,North,0,0.0,0.0,69,0.00,,,0.00,WUHU216HW,2013-01-03 15:17:00,
2013-01-03 07:22:00,40.1,30.8,30.26,North,0,0.0,0.0,69,0.00,,,0.00,WUHU216HW,2013-01-03 15:22:00,
2013-01-03 07:27:00,40.1,31.1,30.26,North,0,0.0,0.0,70,0.00,,,0.00,WUHU216HW,2013-01-03 15:27:00,
2013-01-03 07:32:00,40.1,30.8,30.26,North,0,0.0,0.0,69,0.00,,,0.00,WUHU216HW,2013-01-03 15:32:00,
2013-01-03 07:37:00,40.1,30.8,30.26,North,0,0.0,0.0,69,0.00,,,0.00,WUHU216HW,2013-01-03 15:37:00,
2013-01-03 07:42:00,40.3,31.0,30.26,North,0,0.0,0.0,69,0.00,,,0.00,WUHU216HW,2013-01-03 15:42:00,
2013-01-03 07:47:00,40.7,31.0,30.26,North,0,0.0,0.0,68,0.00,,,0.00,WUHU216HW,2013-01-03 15:47:00,
2013-01-03 07:52:00,41.0,31.3,30.27,North,0,0.0,0.0,68,0.00,,,0.00,WUHU216HW,2013-01-03 15:52:00,
2013-01-03 07:57:00,41.0,31.3,30.27,North,0,0.0,0.0,68,0.00,,,0.00,WUHU216HW,2013-01-03 15:57:00,
2013-01-03 08:02:00,41.0,31.3,30.27,North,0,0.0,0.0,68,0.00,,,0.00,WUHU216HW,2013-01-03 16:02:00,
2013-01-03 08:07:00,41.4,31.7,30.27,North,0,0.0,0.0,68,0.00,,,0.00,WUHU216HW,2013-01-03 16:07:00,
2013-01-03 08:12:00,41.4,31.7,30.28,North,0,0.0,0.0,68,0.00,,,0.00,WUHU216HW,2013-01-03 16:12:00,
2013-01-03 08:17:00,41.4,32.1,30.28,North,0,0.0,0.0,69,0.00,,,0.00,WUHU216HW,2013-01-03 16:17:00,
2013-01-03 08:22:00,41.6,32.2,30.28,North,0,0.0,0.0,69,0.00,,,0.00,WUHU216HW,2013-01-03 16:22:00,
2013-01-03 08:27:00,42.3,33.3,30.28,North,0,0.0,0.0,70,0.00,,,0.00,WUHU216HW,2013-01-03 16:27:00,
2013-01-03 08:32:00,43.0,33.6,30.27,North,0,0.0,0.0,69,0.00,,,0.00,WUHU216HW,2013-01-03 16:32:00,
2013-01-03 08:37:00,43.7,33.8,30.28,North,0,0.0,0.0,68,0.00,,,0.00,WUHU216HW,2013-01-03 16:37:00,
2013-01-03 08:42:00,44.3,34.0,30.28,North,0,0.0,0.0,67,0.00,,,0.00,WUHU216HW,2013-01-03 16:42:00,
2013-01-03 08:47:00,44.6,34.3,30.28,North,0,0.0,0.0,67,0.00,,,0.00,WUHU216HW,2013-01-03 16:47:00,
2013-01-03 08:52:00,45.0,34.3,30.29,North,0,0.0,0.0,66,0.00,,,0.00,WUHU216HW,2013-01-03 16:52:00,
2013-01-03 08:57:00,45.4,34.3,30.29,North,0,0.0,0.0,65,0.00,,,0.00,WUHU216HW,2013-01-03 16:57:00,
2013-01-03 09:02:00,45.7,34.6,30.29,North,0,0.0,0.0,65,0.00,,,0.00,WUHU216HW,2013-01-03 17:02:00,
2013-01-03 09:07:00,45.9,34.4,30.30,North,0,0.0,0.0,64,0.00,,,0.00,WUHU216HW,2013-01-03 17:07:00,
2013-01-03 09:12:00,46.3,34.3,30.29,North,0,0.0,0.0,63,0.00,,,0.00,WUHU216HW,2013-01-03 17:12:00,
2013-01-03 09:17:00,46.6,34.7,30.29,North,0,0.0,0.0,63,0.00,,,0.00,WUHU216HW,2013-01-03 17:17:00,
2013-01-03 09:22:00,47.2,35.2,30.29,North,0,0.0,0.0,63,0.00,,,0.00,WUHU216HW,2013-01-03 17:22:00,
2013-01-03 09:27:00,47.2,35.2,30.29,North,0,0.0,0.0,63,0.00,,,0.00,WUHU216HW,2013-01-03 17:27:00,
2013-01-03 09:32:00,47.9,35.5,30.30,North,0,0.0,0.0,62,0.00,,,0.00,WUHU216HW,2013-01-03 17:32:00,
2013-01-03 09:37:00,48.2,35.8,30.30,North,0,0.0,0.0,62,0.00,,,0.00,WUHU216HW,2013-01-03 17:37:00,
2013-01-03 09:42:00,48.4,36.4,30.30,North,0,0.0,0.0,63,0.00,,,0.00,WUHU216HW,2013-01-03 17:42:00,
2013-01-03 09:47:00,48.8,36.7,30.30,North,0,0.0,0.0,63,0.00,,,0.00,WUHU216HW,2013-01-03 17:47:00,
2013-01-03 09:52:00,49.3,37.6,30.31,North,0,0.0,0.0,64,0.00,,,0.00,WUHU216HW,2013-01-03 17:52:00,
2013-01-03 09:57:00,50.0,37.9,30.31,North,0,0.0,0.0,63,0.00,,,0.00,WUHU216HW,2013-01-03 17:57:00,
2013-01-03 10:02:00,50.8,37.8,30.31,North,0,0.0,0.0,61,0.00,,,0.00,WUHU216HW,2013-01-03 18:02:00,
2013-01-03 10:07:00,51.1,37.3,30.31,North,0,0.0,0.0,59,0.00,,,0.00,WUHU216HW,2013-01-03 18:07:00,
2013-01-03 10:12:00,51.7,37.7,30.31,North,0,0.0,0.0,59,0.00,,,0.00,WUHU216HW,2013-01-03 18:12:00,
2013-01-03 10:17:00,52.2,38.3,30.31,North,0,0.0,0.0,59,0.00,,,0.00,WUHU216HW,2013-01-03 18:17:00,
2013-01-03 10:22:00,52.9,38.1,30.31,North,0,0.0,0.0,57,0.00,,,0.00,WUHU216HW,2013-01-03 18:22:00,
2013-01-03 10:27:00,53.6,37.8,30.31,North,0,0.0,0.0,55,0.00,,,0.00,WUHU216HW,2013-01-03 18:27:00,
2013-01-03 10:32:00,54.0,38.2,30.31,North,0,0.0,0.0,55,0.00,,,0.00,WUHU216HW,2013-01-03 18:32:00,
2013-01-03 10:37:00,54.2,37.8,30.31,North,0,0.0,0.0,54,0.00,,,0.00,WUHU216HW,2013-01-03 18:37:00,
2013-01-03 10:42:00,54.5,38.2,30.31,North,0,0.0,0.0,54,0.00,,,0.00,WUHU216HW,2013-01-03 18:42:00,
2013-01-03 10:47:00,54.9,38.0,30.31,North,0,0.0,0.0,53,0.00,,,0.00,WUHU216HW,2013-01-03 18:47:00,
2013-01-03 10:52:00,55.1,37.7,30.30,North,0,0.0,0.0,52,0.00,,,0.00,WUHU216HW,2013-01-03 18:52:00,
2013-01-03 10:57:00,55.4,37.5,30.30,North,0,0.0,0.0,51,0.00,,,0.00,WUHU216HW,2013-01-03 18:57:00,
2013-01-03 11:02:00,55.4,37.1,30.30,North,0,0.0,0.0,50,0.00,,,0.00,WUHU216HW,2013-01-03 19:02:00,
2013-01-03 11:07:00,55.6,37.7,30.29,North,0,0.0,0.0,51,0.00,,,0.00,WUHU216HW,2013-01-03 19:07:00,
2013-01-03 11:12:00,55.6,37.3,30.29,North,0,0.0,0.0,50,0.00,,,0.00,WUHU216HW,2013-01-03 19:12:00,
2013-01-03 11:17:00,55.8,37.4,30.29,North,0,0.0,0.0,50,0.00,,,0.00,WUHU216HW,2013-01-03 19:17:00,
2013-01-03 11:55:00,56.0,35.9,30.28,North,0,0.0,0.0,47,0.00,,,0.00,WUHU216HW,2013-01-03 19:55:00,
2013-01-03 12:00:00,56.3,36.8,30.28,North,0,0.0,0.0,48,0.00,,,0.00,WUHU216HW,2013-01-03 20:00:00,
2013-01-03 12:05:00,56.9,36.8,30.27,North,0,0.0,0.0,47,0.00,,,0.00,WUHU216HW,2013-01-03 20:05:00,
2013-01-03 12:10:00,57.2,37.2,30.27,North,0,0.0,0.0,47,0.00,,,0.00,WUHU216HW,2013-01-03 20:10:00,
2013-01-03 12:15:00,57.6,36.9,30.27,North,0,0.0,0.0,46,0.00,,,0.00,WUHU216HW,2013-01-03 20:15:00,
2013-01-03 12:20:00,58.5,38.3,30.27,North,0,0.0,0.0,47,0.00,,,0.00,WUHU216HW,2013-01-03 20:20:00,
2013-01-03 12:25:00,59.0,38.8,30.27,North,0,0.0,0.0,47,0.00,,,0.00,WUHU216HW,2013-01-03 20:25:00,
2013-01-03 12:30:00,59.6,38.7,30.27,North,0,0.0,0.0,46,0.00,,,0.00,WUHU216HW,2013-01-03 20:30:00,
2013-01-03 12:35:00,59.9,39.6,30.27,North,0,0.0,0.0,47,0.00,,,0.00,WUHU216HW,2013-01-03 20:35:00,
2013-01-03 12:40:00,60.5,39.5,30.27,North,0,0.0,0.0,46,0.00,,,0.00,WUHU216HW,2013-01-03 20:40:00,
2013-01-03 12:45:00,60.8,41.0,30.27,North,0,0.0,0.0,48,0.00,,,0.00,WUHU216HW,2013-01-03 20:45:00,
2013-01-03 12:50:00,61.6,41.0,30.27,North,0,0.0,0.0,47,0.00,,,0.00,WUHU216HW,2013-01-03 20:50:00,
2013-01-03 12:55:00,61.6,39.9,30.27,North,0,0.0,0.0,45,0.00,,,0.00,WUHU216HW,2013-01-03 20:55:00,
2013-01-03 13:00:00,61.0,39.4,30.27,North,0,0.0,0.0,45,0.00,,,0.00,WUHU216HW,2013-01-03 21:00:00,
2013-01-03 13:05:00,60.8,39.2,30.27,North,0,0.0,0.0,45,0.00,,,0.00,WUHU216HW,2013-01-03 21:05:00,
2013-01-03 13:10:00,61.2,40.7,30.26,North,0,0.0,0.0,47,0.00,,,0.00,WUHU216HW,2013-01-03 21:10:00,
2013-01-03 13:15:00,61.6,40.5,30.26,North,0,0.0,0.0,46,0.00,,,0.00,WUHU216HW,2013-01-03 21:15:00,
2013-01-03 13:20:00,62.1,41.5,30.27,North,0,0.0,0.0,47,0.00,,,0.00,WUHU216HW,2013-01-03 21:20:00,
2013-01-03 13:25:00,62.6,40.3,30.27,North,0,0.0,0.0,44,0.00,,,0.00,WUHU216HW,2013-01-03 21:25:00,
2013-01-03 13:30:00,62.5,40.2,30.27,North,0,0.0,0.0,44,0.00,,,0.00,WUHU216HW,2013-01-03 21:30:00,
2013-01-03 13:35:00,62.3,40.5,30.27,North,0,0.0,0.0,45,0.00,,,0.00,WUHU216HW,2013-01-03 21:35:00,
2013-01-03 13:40:00,62.5,41.3,30.27,North,0,0.0,0.0,46,0.00,,,0.00,WUHU216HW,2013-01-03 21:40:00,
2013-01-03 13:45:00,62.3,40.0,30.27,North,0,0.0,0.0,44,0.00,,,0.00,WUHU216HW,2013-01-03 21:45:00,
2013-01-03 13:50:00,61.9,40.2,30.27,North,0,0.0,0.0,45,0.00,,,0.00,WUHU216HW,2013-01-03 21:50:00,
2013-01-03 13:55:00,61.9,40.2,30.27,North,0,0.0,0.0,45,0.00,,,0.00,WUHU216HW,2013-01-03 21:55:00,
2013-01-03 14:00:00,62.3,41.1,30.27,North,0,0.0,0.0,46,0.00,,,0.00,WUHU216HW,2013-01-03 22:00:00,
2013-01-03 14:05:00,62.1,42.7,30.27,North,0,0.0,0.0,49,0.00,,,0.00,WUHU216HW,2013-01-03 22:05:00,
2013-01-03 14:10:00,62.3,43.4,30.27,North,0,0.0,0.0,50,0.00,,,0.00,WUHU216HW,2013-01-03 22:10:00,
2013-01-03 14:15:00,62.6,44.2,30.27,North,0,0.0,0.0,51,0.00,,,0.00,WUHU216HW,2013-01-03 22:15:00,
2013-01-03 14:20:00,62.8,44.4,30.27,North,0,0.0,0.0,51,0.00,,,0.00,WUHU216HW,2013-01-03 22:20:00,
2013-01-03 14:25:00,62.6,44.2,30.27,North,0,0.0,0.0,51,0.00,,,0.00,WUHU216HW,2013-01-03 22:25:00,
2013-01-03 14:30:00,62.3,43.9,30.27,North,0,0.0,0.0,51,0.00,,,0.00,WUHU216HW,2013-01-03 22:30:00,
2013-01-03 14:35:00,62.1,44.2,30.27,North,0,0.0,0.0,52,0.00,,,0.00,WUHU216HW,2013-01-03 22:35:00,
2013-01-03 14:40:00,61.9,43.6,30.27,North,0,0.0,0.0,51,0.00,,,0.00,WUHU216HW,2013-01-03 22:40:00,
2013-01-03 14:45:00,61.6,43.3,30.28,North,0,0.0,0.0,51,0.00,,,0.00,WUHU216HW,2013-01-03 22:45:00,
2013-01-03 14:50:00,61.6,42.8,30.28,North,0,0.0,0.0,50,0.00,,,0.00,WUHU216HW,2013-01-03 22:50:00,
2013-01-03 14:55:00,61.2,42.5,30.28,North,0,0.0,0.0,50,0.00,,,0.00,WUHU216HW,2013-01-03 22:55:00,
2013-01-03 15:00:00,61.2,42.9,30.28,North,0,0.0,0.0,51,0.00,,,0.00,WUHU216HW,2013-01-03 23:00:00,
2013-01-03 15:05:00,61.2,42.5,30.28,North,0,0.0,0.0,50,0.00,,,0.00,WUHU216HW,2013-01-03 23:05:00,
2013-01-03 15:10:00,61.0,42.8,30.28,North,0,0.0,0.0,51,0.00,,,0.00,WUHU216HW,2013-01-03 23:10:00,
2013-01-03 15:15:00,60.8,42.6,30.28,North,0,0.0,0.0,51,0.00,,,0.00,WUHU216HW,2013-01-03 23:15:00,
2013-01-03 15:20:00,60.8,42.6,30.28,North,0,0.0,0.0,51,0.00,,,0.00,WUHU216HW,2013-01-03 23:20:00,
2013-01-03 15:25:00,60.5,42.3,30.28,North,0,0.0,0.0,51,0.00,,,0.00,WUHU216HW,2013-01-03 23:25:00,
2013-01-03 15:30:00,60.3,42.1,30.28,North,0,0.0,0.0,51,0.00,,,0.00,WUHU216HW,2013-01-03 23:30:00,
2013-01-03 15:35:00,59.6,42.0,30.29,North,0,0.0,0.0,52,0.00,,,0.00,WUHU216HW,2013-01-03 23:35:00,
2013-01-03 15:40:00,58.9,41.3,30.29,North,0,0.0,0.0,52,0.00,,,0.00,WUHU216HW,2013-01-03 23:40:00,
2013-01-03 15:45:00,58.3,41.2,30.29,North,0,0.0,0.0,53,0.00,,,0.00,WUHU216HW,2013-01-03 23:45:00,
2013-01-03 15:50:00,57.8,41.2,30.29,North,0,0.0,0.0,54,0.00,,,0.00,WUHU216HW,2013-01-03 23:50:00,
2013-01-03 15:55:00,57.2,40.8,30.29,North,0,0.0,0.0,54,0.00,,,0.00,WUHU216HW,2013-01-03 23:55:00,
2013-01-03 16:00:00,57.1,40.6,30.28,North,0,0.0,0.0,54,0.00,,,0.00,WUHU216HW,2013-01-04 00:00:00,
2013-01-03 16:05:00,56.5,40.5,30.28,North,0,0.0,0.0,55,0.00,,,0.00,WUHU216HW,2013-01-04 00:05:00,
2013-01-03 16:10:00,56.2,40.6,30.28,North,0,0.0,0.0,56,0.00,,,0.00,WUHU216HW,2013-01-04 00:10:00,
2013-01-03 16:15:00,56.0,40.4,30.28,North,0,0.0,0.0,56,0.00,,,0.00,WUHU216HW,2013-01-04 00:15:00,
2013-01-03 16:20:00,55.8,40.7,30.28,North,0,0.0,0.0,57,0.00,,,0.00,WUHU216HW,2013-01-04 00:20:00,
2013-01-03 16:25:00,55.4,40.3,30.28,North,0,0.0,0.0,57,0.00,,,0.00,WUHU216HW,2013-01-04 00:25:00,
2013-01-03 16:30:00,55.1,40.1,30.28,North,0,0.0,0.0,57,0.00,,,0.00,WUHU216HW,2013-01-04 00:30:00,
2013-01-03 16:35:00,54.7,40.1,30.28,North,0,0.0,0.0,58,0.00,,,0.00,WUHU216HW,2013-01-04 00:35:00,
2013-01-03 16:40:00,54.4,39.9,30.28,North,0,0.0,0.0,58,0.00,,,0.00,WUHU216HW,2013-01-04 00:40:00,
2013-01-03 16:45:00,54.0,40.0,30.28,North,0,0.0,0.0,59,0.00,,,0.00,WUHU216HW,2013-01-04 00:45:00,
2013-01-03 16:50:00,53.8,39.9,30.28,North,0,0.0,0.0,59,0.00,,,0.00,WUHU216HW,2013-01-04 00:50:00,
2013-01-03 16:55:00,53.3,39.8,30.29,North,0,0.0,0.0,60,0.00,,,0.00,WUHU216HW,2013-01-04 00:55:00,
2013-01-03 17:00:00,52.9,39.8,30.29,North,0,0.0,0.0,61,0.00,,,0.00,WUHU216HW,2013-01-04 01:00:00,
2013-01-03 17:05:00,52.7,40.1,30.29,North,0,0.0,0.0,62,0.00,,,0.00,WUHU216HW,2013-01-04 01:05:00,
2013-01-03 17:10:00,52.2,40.3,30.29,North,0,0.0,0.0,64,0.00,,,0.00,WUHU216HW,2013-01-04 01:10:00,
2013-01-03 17:15:00,51.8,40.4,30.29,North,0,0.0,0.0,65,0.00,,,0.00,WUHU216HW,2013-01-04 01:15:00,
2013-01-03 17:20:00,51.5,40.5,30.29,North,0,0.0,0.0,66,0.00,,,0.00,WUHU216HW,2013-01-04 01:20:00,
2013-01-03 17:25:00,51.1,40.5,30.29,North,0,0.0,0.0,67,0.00,,,0.00,WUHU216HW,2013-01-04 01:25:00,
2013-01-03 17:30:00,50.6,40.4,30.29,North,0,0.0,0.0,68,0.00,,,0.00,WUHU216HW,2013-01-04 01:30:00,
2013-01-03 17:35:00,50.4,40.2,30.29,North,0,0.0,0.0,68,0.00,,,0.00,WUHU216HW,2013-01-04 01:35:00,
2013-01-03 17:40:00,50.0,40.3,30.29,North,0,0.0,0.0,69,0.00,,,0.00,WUHU216HW,2013-01-04 01:40:00,
2013-01-03 17:45:00,49.7,40.3,30.29,North,0,0.0,0.0,70,0.00,,,0.00,WUHU216HW,2013-01-04 01:45:00,
2013-01-03 17:50:00,49.5,40.1,30.30,North,0,0.0,0.0,70,0.00,,,0.00,WUHU216HW,2013-01-04 01:50:00,
2013-01-03 17:55:00,49.3,40.0,30.30,North,0,0.0,0.0,70,0.00,,,0.00,WUHU216HW,2013-01-04 01:55:00,
2013-01-03 18:00:00,49.1,40.5,30.30,North,0,0.0,0.0,72,0.00,,,0.00,WUHU216HW,2013-01-04 02:00:00,
2013-01-03 18:05:00,49.0,40.3,30.30,North,0,0.0,0.0,72,0.00,,,0.00,WUHU216HW,2013-01-04 02:05:00,
2013-01-03 18:10:00,48.6,40.2,30.30,North,0,0.0,0.0,73,0.00,,,0.00,WUHU216HW,2013-01-04 02:10:00,
2013-01-03 18:15:00,48.6,41.0,30.30,North,0,0.0,0.0,75,0.00,,,0.00,WUHU216HW,2013-01-04 02:15:00,
2013-01-03 18:20:00,48.4,41.1,30.30,North,0,0.0,0.0,76,0.00,,,0.00,WUHU216HW,2013-01-04 02:20:00,
2013-01-03 18:25:00,48.4,41.5,30.30,North,0,0.0,0.0,77,0.00,,,0.00,WUHU216HW,2013-01-04 02:25:00,
2013-01-03 18:30:00,48.4,41.8,30.31,North,0,0.0,0.0,78,0.00,,,0.00,WUHU216HW,2013-01-04 02:30:00,
2013-01-03 18:35:00,48.6,42.3,30.31,North,0,0.0,0.0,79,0.00,,,0.00,WUHU216HW,2013-01-04 02:35:00,
2013-01-03 18:40:00,48.4,42.1,30.31,North,0,0.0,0.0,79,0.00,,,0.00,WUHU216HW,2013-01-04 02:40:00,
2013-01-03 18:45:00,48.4,42.1,30.31,North,0,0.0,0.0,79,0.00,,,0.00,WUHU216HW,2013-01-04 02:45:00,
2013-01-03 18:50:00,48.4,42.5,30.30,North,0,0.0,0.0,80,0.00,,,0.00,WUHU216HW,2013-01-04 02:50:00,
2013-01-03 18:55:00,48.4,42.5,30.31,North,0,0.0,0.0,80,0.00,,,0.00,WUHU216HW,2013-01-04 02:55:00,
2013-01-03 19:00:00,48.6,43.0,30.31,North,0,0.0,0.0,81,0.00,,,0.00,WUHU216HW,2013-01-04 03:00:00,
2013-01-03 19:05:00,48.6,42.7,30.31,North,0,0.0,0.0,80,0.00,,,0.00,WUHU216HW,2013-01-04 03:05:00,
2013-01-03 19:10:00,48.4,42.9,30.31,North,0,0.0,0.0,81,0.00,,,0.00,WUHU216HW,2013-01-04 03:10:00,
2013-01-03 19:15:00,48.2,42.3,30.31,North,0,0.0,0.0,80,0.00,,,0.00,WUHU216HW,2013-01-04 03:15:00,
2013-01-03 19:20:00,48.1,42.1,30.31,North,0,0.0,0.0,80,0.00,,,0.00,WUHU216HW,2013-01-04 03:20:00,
2013-01-03 19:25:00,47.9,41.9,30.31,North,0,0.0,0.0,80,0.00,,,0.00,WUHU216HW,2013-01-04 03:25:00,
2013-01-03 19:30:00,47.9,41.9,30.31,North,0,0.0,0.0,80,0.00,,,0.00,WUHU216HW,2013-01-04 03:30:00,
2013-01-03 19:35:00,47.7,41.9,30.31,North,0,0.0,0.0,80,0.00,,,0.00,WUHU216HW,2013-01-04 03:35:00,
2013-01-03 19:40:00,47.7,41.9,30.32,North,0,0.0,0.0,80,0.00,,,0.00,WUHU216HW,2013-01-04 03:40:00,
2013-01-03 19:45:00,48.1,41.8,30.31,North,0,0.0,0.0,79,0.00,,,0.00,WUHU216HW,2013-01-04 03:45:00,
2013-01-03 19:50:00,48.6,41.9,30.32,North,0,0.0,0.0,78,0.00,,,0.00,WUHU216HW,2013-01-04 03:50:00,
2013-01-03 19:55:00,48.6,41.3,30.31,North,0,0.0,0.0,76,0.00,,,0.00,WUHU216HW,2013-01-04 03:55:00,
2013-01-03 20:00:00,49.0,41.3,30.32,North,0,0.0,0.0,75,0.00,,,0.00,WUHU216HW,2013-01-04 04:00:00,
2013-01-03 20:05:00,49.3,40.7,30.32,North,0,0.0,0.0,72,0.00,,,0.00,WUHU216HW,2013-01-04 04:05:00,
2013-01-03 20:10:00,49.5,40.5,30.32,North,0,0.0,0.0,71,0.00,,,0.00,WUHU216HW,2013-01-04 04:10:00,
2013-01-03 20:15:00,49.7,39.5,30.32,North,0,0.0,0.0,68,0.00,,,0.00,WUHU216HW,2013-01-04 04:15:00,
2013-01-03 20:21:00,49.7,39.2,30.32,North,0,0.0,0.0,67,0.00,,,0.00,WUHU216HW,2013-01-04 04:21:00,
2013-01-03 20:26:00,49.9,38.9,30.32,North,0,0.0,0.0,66,0.00,,,0.00,WUHU216HW,2013-01-04 04:26:00,
2013-01-03 20:31:00,49.9,38.5,30.32,North,0,0.0,0.0,65,0.00,,,0.00,WUHU216HW,2013-01-04 04:31:00,
2013-01-03 20:36:00,49.7,38.0,30.32,North,0,0.0,0.0,64,0.00,,,0.00,WUHU216HW,2013-01-04 04:36:00,
2013-01-03 20:41:00,49.7,38.0,30.32,North,0,0.0,0.0,64,0.00,,,0.00,WUHU216HW,2013-01-04 04:41:00,
2013-01-03 20:46:00,49.7,38.0,30.32,North,0,0.0,0.0,64,0.00,,,0.00,WUHU216HW,2013-01-04 04:46:00,
2013-01-03 20:51:00,49.7,38.0,30.32,North,0,0.0,0.0,64,0.00,,,0.00,WUHU216HW,2013-01-04 04:51:00,
2013-01-03 20:56:00,49.7,38.0,30.31,North,0,0.0,0.0,64,0.00,,,0.00,WUHU216HW,2013-01-04 04:56:00,
2013-01-03 21:03:00,49.5,37.8,30.32,North,0,0.0,0.0,64,0.00,,,0.00,WUHU216HW,2013-01-04 05:03:00,
2013-01-03 21:07:00,49.3,37.6,30.32,North,0,0.0,0.0,64,0.00,,,0.00,WUHU216HW,2013-01-04 05:07:00,
2013-01-03 21:12:00,49.1,37.4,30.32,North,0,0.0,0.0,64,0.00,,,0.00,WUHU216HW,2013-01-04 05:12:00,
2013-01-03 21:17:00,49.0,37.3,30.32,North,0,0.0,0.0,64,0.00,,,0.00,WUHU216HW,2013-01-04 05:17:00,
2013-01-03 21:22:00,49.0,37.3,30.32,North,0,0.0,0.0,64,0.00,,,0.00,WUHU216HW,2013-01-04 05:22:00,
2013-01-03 21:27:00,49.0,37.3,30.32,North,0,0.0,0.0,64,0.00,,,0.00,WUHU216HW,2013-01-04 05:27:00,
2013-01-03 21:32:00,48.8,37.1,30.32,North,0,0.0,0.0,64,0.00,,,0.00,WUHU216HW,2013-01-04 05:32:00,
2013-01-03 21:37:00,48.6,37.0,30.33,North,0,0.0,0.0,64,0.00,,,0.00,WUHU216HW,2013-01-04 05:37:00,
2013-01-03 21:42:00,48.6,37.4,30.32,North,0,0.0,0.0,65,0.00,,,0.00,WUHU216HW,2013-01-04 05:42:00,
2013-01-03 21:47:00,48.4,37.2,30.33,North,0,0.0,0.0,65,0.00,,,0.00,WUHU216HW,2013-01-04 05:47:00,
2013-01-03 21:52:00,48.4,37.2,30.33,North,0,0.0,0.0,65,0.00,,,0.00,WUHU216HW,2013-01-04 05:52:00,
2013-01-03 21:57:00,48.2,37.0,30.33,North,0,0.0,0.0,65,0.00,,,0.00,WUHU216HW,2013-01-04 05:57:00,
2013-01-03 22:02:00,48.1,37.2,30.33,North,0,0.0,0.0,66,0.00,,,0.00,WUHU216HW,2013-01-04 06:02:00,
2013-01-03 22:07:00,47.9,37.0,30.33,North,0,0.0,0.0,66,0.00,,,0.00,WUHU216HW,2013-01-04 06:07:00,
2013-01-03 22:12:00,47.9,37.5,30.32,North,0,0.0,0.0,67,0.00,,,0.00,WUHU216HW,2013-01-04 06:12:00,
2013-01-03 22:17:00,47.7,37.3,30.33,North,0,0.0,0.0,67,0.00,,,0.00,WUHU216HW,2013-01-04 06:17:00,
2013-01-03 22:22:00,47.5,37.4,30.33,North,0,0.0,0.0,68,0.00,,,0.00,WUHU216HW,2013-01-04 06:22:00,
2013-01-03 22:27:00,47.3,37.3,30.33,North,0,0.0,0.0,68,0.00,,,0.00,WUHU216HW,2013-01-04 06:27:00,
2013-01-03 22:32:00,47.3,37.3,30.33,North,0,0.0,0.0,68,0.00,,,0.00,WUHU216HW,2013-01-04 06:32:00,
2013-01-03 22:37:00,47.2,37.5,30.33,North,0,0.0,0.0,69,0.00,,,0.00,WUHU216HW,2013-01-04 06:37:00,
2013-01-03 22:42:00,47.2,37.5,30.33,North,0,0.0,0.0,69,0.00,,,0.00,WUHU216HW,2013-01-04 06:42:00,
2013-01-03 22:47:00,47.2,37.5,30.33,North,0,0.0,0.0,69,0.00,,,0.00,WUHU216HW,2013-01-04 06:47:00,
2013-01-03 22:52:00,47.0,37.7,30.33,North,0,0.0,0.0,70,0.00,,,0.00,WUHU216HW,2013-01-04 06:52:00,
2013-01-03 22:57:00,47.2,37.9,30.33,North,0,0.0,0.0,70,0.00,,,0.00,WUHU216HW,2013-01-04 06:57:00,
2013-01-03 23:02:00,47.2,37.5,30.33,North,0,0.0,0.0,69,0.00,,,0.00,WUHU216HW,2013-01-04 07:02:00,
2013-01-03 23:07:00,47.5,37.9,30.33,North,0,0.0,0.0,69,0.00,,,0.00,WUHU216HW,2013-01-04 07:07:00,
2013-01-03 23:12:00,47.5,37.9,30.33,North,0,0.0,0.0,69,0.00,,,0.00,WUHU216HW,2013-01-04 07:12:00,
2013-01-03 23:17:00,47.5,37.9,30.33,North,0,0.0,0.0,69,0.00,,,0.00,WUHU216HW,2013-01-04 07:17:00,
2013-01-03 23:22:00,47.5,37.9,30.33,North,0,0.0,0.0,69,0.00,,,0.00,WUHU216HW,2013-01-04 07:22:00,
2013-01-03 23:27:00,47.7,38.0,30.33,North,0,0.0,0.0,69,0.00,,,0.00,WUHU216HW,2013-01-04 07:27:00,
2013-01-03 23:32:00,47.7,38.0,30.33,North,0,0.0,0.0,69,0.00,,,0.00,WUHU216HW,2013-01-04 07:32:00,
2013-01-03 23:37:00,47.5,37.9,30.32,North,0,0.0,0.0,69,0.00,,,0.00,WUHU216HW,2013-01-04 07:37:00,
2013-01-03 23:42:00,47.3,38.1,30.32,North,0,0.0,0.0,70,0.00,,,0.00,WUHU216HW,2013-01-04 07:42:00,
2013-01-03 23:47:00,47.3,38.1,30.32,North,0,0.0,0.0,70,0.00,,,0.00,WUHU216HW,2013-01-04 07:47:00,
2013-01-03 23:52:00,47.2,37.9,30.32,North,0,0.0,0.0,70,0.00,,,0.00,WUHU216HW,2013-01-04 07:52:00,
2013-01-03 23:57:00,47.2,37.9,30.32,North,0,0.0,0.0,70,0.00,,,0.00,WUHU216HW,2013-01-04 07:57:00,